Location: Piotrkow Trybunalski
(51.4000°N, 19.6830°E)
Time: 06:07:35
(UTC+02:00)

STRAND 1 - Pass Details

Date: 29 February 2024
Orbit: 764 x 779 km, 98.4° (Epoch: 24 April)

Event Time Altitude Azimuth Distance (km) Brightness Sun altitude
Rises 20:20:56 0° 4° (N) 3,271 ? -28.3°
Reaches altitude 10° 20:24:14 10° 342° (NNW) 2,336 ? -28.7°
Maximum altitude 20:27:00 15° 309° (NW) 2,009 ? -29.1°
Drops below altitude 10° 20:29:46 10° 276° (W) 2,323 ? -29.5°
Sets 20:33:02 0° 253° (WSW) 3,242 ? -29.9°
